Current Weather Network in the world 
cooperate with our weather  network
  
 
country list  
Weather now
23-11-20  17:21
Bassano Romano (VT)  (Italy)  
9.8  C.     debole;

 

If you want to participate in our meteorological network, fill in form data, and send us an  e_mail and we will activate your weather station in your country. You would to send your weather reporting, one or more times a day, through our website .. for examples insert
       
manual meteorological reports today      
Weather reporting today :
Romania: stazione meteo: Amara
Spain: stazione meteo: Desierto De Tabernas
Greenland: stazione meteo: Qinggua Valley
16:38
PAESE CITTA'DATAORAT C.(m)VENTO (Km/h)PAPREC.STATO
AustriaInnsbruck23-11-2015:20 UTC40.51 1029
AustriaLinz23-11-2015:20 UTC64.12 W1029
AustriaVienna/Wien23-11-2015:20 UTC51.03 1028
AustriaSalisburgo/Salzsbu23-11-2015:20 UTC71.03 1029
Belarus/BielorussiaMinsk23-11-2015:10 UTC45 WSW1013
Belarus/BielorussiaRiga23-11-2015:20 UTC63.09 SW1007
BulgariaSofia23-11-2015:00 UTC81.54 E1024
Belgium/BelgioBruxelles23-11-2015:20 UTC82.06 SSW1028
Croatia/CroaziaZagabria/Zagreb23-11-2015:00 UTC60.51 1028
Croatia/CroaziaDubrovnik23-11-2015:00 UTC145.14 WNW1024
Croatia/CroaziaSpalato/Split23-11-2015:00 UTC133.6 WNW1025
Croatia/CroaziaPula23-11-2015:00 UTC100.51 1027
Croatia/CroaziaZara/Zadar23-11-2015:00 UTC112.57 NW1026
Croazia/CroatiaFiume/Rijeka23-11-2015:00 UTC101.03 N1027
Czech RepublicPraga23-11-2015:00 UTC53.6 WNW1028
SlovakiaBratislava23-11-2015:00 UTC41.54 ESE1028
BosniaSarajevo23-11-2015:00 UTC71.03 1025
Denmark/DanimarcaAlborg23-11-2015:20 UTC74.63 W1018
Denmark/DanimarcaEsbjerg23-11-2015:20 UTC85.66 WSW1022
Denmark/DanimarcaCopenaghen/Koeben.23-11-2015:20 UTC87.72 W1020
Finland/FinlandiaHelsinky23-11-2015:50 UTC-23.09 NE1021
Finland/FinlandiaOulu23-11-2015:20 UTC13.6 NW992
France/FranciaParigi/Paris23-11-2015:00 UTC122.57 WSW1028
France/FranciaNizza/Nices23-11-2015:00 UTC140 N1025
France/FranciaTrasburgo23-11-2015:00 UTC90.51 WSW1029
France/FranciaMontepellier23-11-2015:00 UTC133.6 SW1026
France/FranciaLione/Lyon23-11-2015:00 UTC80 N1028
France/FranciaLilla23-11-2015:00 UTC91.03 1028
France/FranciaBrest23-11-2015:00 UTC123.6 S1027
France/FranciaBordeaux23-11-2015:00 UTC132.06 NNE1028
France/FranciaMarsiglia/Marsei23-11-2015:00 UTC132.06 W1025
Germany/GermaniaAmburgo-fink23-11-2015:20 UTC84.63 WSW1025
Germany/GermaniaAmburgo-fuhl23-11-2015:20 UTC83.6 WSW1025
Germany/GermaniaBerlin-sch23-11-2015:20 UTC64.12 W1026
Germany/GermaniaBerlino-tegel23-11-2006:50 UTC63.09 E1027
Germany/GermaniaMonaco23-11-2015:20 UTC61.03 1029
Germany/GermaniaNonimberga23-11-2015:20 UTC71.03 W1029
Germany/GermaniaFrancoforte23-11-2015:20 UTC71.54 SSE1029
Germany/GermaniaStoccarda23-11-2015:20 UTC61.03 SSE1029
Germany/GermaniaHannover23-11-2015:20 UTC72.57 WSW1027
Germany/GermaniaDusseldorf23-11-2015:20 UTC73.09 SW1028
ISReykjavik23-11-2015:00 UTC02.06 SSE989
Netherlands/Paesi baAmsterdam23-11-2015:25 UTC84.12 SSW1027
Netherlands/Paesi BaRotterdam23-11-2015:25 UTC83.09 SSW1027
Netherlands/Paesi BaGroninga/Groningen23-11-2015:25 UTC74.12 SW1026
Netherlands/Paesi baMaastrich23-11-2015:25 UTC81.03 S1028
Norway-NorvegiaOslo23-11-2015:20 UTC43.09 WSW1010
Norway-NorvegiaTrondheim23-11-2015:20 UTC37.2 WSW1008
Norway-NorvegiaBergen23-11-2015:20 UTC65.14 SSE1011
Norway-NorvegiaBodo23-11-2015:20 UTC55.66 NNW1001
Poland/PoloniaVarsavia/Warsawa23-11-2015:00 UTC77.2 W1020
Portugal-PortogalloLisbona/Lisboa23-11-2015:00 UTC172.57 E1024
Portugal-PortogalloFaro-airport23-11-2015:00 UTC184.12 E1024
Portugal-PortogalloPorto Santo23-11-2015:00 UTC213.6 ESE1023
Portugal-PortogalloPorto/Pedras Rubra23-11-2015:00 UTC161.54 W1025
RUSMosca23-11-2015:00 UTC13 SSW1009
Russian-RussiaSt.Peterburg23-11-2015:00 UTC43 WSW998
RusVladivostok23-11-2015:00 UTC-121 W1026
RomaniaBucarest23-11-2015:00 UTC62.57 W1025
Spain/SpagnaMadrid/Barajas23-11-2015:00 UTC150.51 1025
Spain/SpagnaMadrid/Cuatro23-11-2015:00 UTC161.03 1026
Spain/SpagnaBarcellona23-11-2015:00 UTC166.69 SW1026
Spain/SpagnaLa Couruna23-11-2015:00 UTC152.57 NNE1024
Spain/SpagnaAlmeria23-11-2015:00 UTC183.09 S1026
Spain/SpagnaValencia23-11-2015:00 UTC172.57 ESE1026
SpainIbiza23-11-2015:00 UTC171.54 SSW1026
Sweden-SveziaStockholm/Stoccolm23-11-2015:20 UTC56.69 W1006
Sweden-SveziaGoteborg23-11-2010:20 UTC-20 N1012
Sweden-SveziaMalmo23-11-2015:20 UTC76.69 W1019
Sweden-SveziaKiruna23-11-2015:20 UTC04.63 N995
Sweden-SveziaSundsvall23-11-2015:20 UTC41.54 WNW1002
Sweden-SveziaJongkoping23-11-2015:20 UTC54.63 W1013
Sweden-SveziaJongkoping23-11-2015:20 UTC54.63 W1013
Sweden-SveziaJongkoping23-11-2015:20 UTC54.63 W1013
Sweden-SveziaJongkoping23-11-2015:20 UTC54.63 W1013
Sweden-SveziaJongkoping23-11-2015:20 UTC54.63 W1013
Sweden-SveziaJongkoping23-11-2015:20 UTC54.63 W1013
Ukraine/UcrainaLvov/l'viv23-11-2015:00 UTC43 W1023
Ukraine/UcrainaKijev23-11-2015:00 UTC53 WSW1020
United KingdomBelfast-airport23-11-2015:20 UTC106.69 S1012
United KingdomBirmingham23-11-2015:20 UTC83.09 S1023
United KingdomEdimburgo/Edimburg23-11-2015:20 UTC1010.8 SW1011
United KingdomLeeds23-11-2015:20 UTC85.66 SSW1019
United KingdomLiverpool23-11-2015:20 UTC95.14 SSE1020
United KingdomBristol23-11-2015:20 UTC103.09 S1024
United KingdomPlymouth23-11-2015:20 UTC66.17 NW1018
GBLondra23-11-2015:20 UTC102.06 SW1026
UngheriaBudapest23-11-2015:00 UTC31.54 WSW1028
United KingdomManchester-airport23-11-2015:20 UTC84.12 S1020
yugoslaviaBelgrado/Beograd23-11-2015:00 UTC61.03 1028
23-11-2015:20 UTC132.06 NW1024
 

 .

. .
. . . .

informazioni e contatti

www.meteorete.it
by.A.Santagostini C.2001-2016
P.I.05250380960

Partecipa alla rete meteorologica

  
 Cerca Meteo  
Stazioni meteo AM
Satellite e Radar
Rete in GooGle Maps
stazioni meteorete
Schermo solare Meteorete e Davis
stazioni automatiche
stazioni AM
rete internazionale
stazioni estere
archivio articoli
citta fredde

i nostri amici
negozio meteorete
dati storici stazioni
clima e riscaldamento globale
progetto meteo nelle scuole
temperatura Media in Italia 1951-2000
galleria di immagini
noleggio webcam
servizi meteo gratuiti
meteorologia per le scuole elementari